Location: Bas-Clignon
(44.2000°N, 6.6333°E)
Time: 12:19:58
(UTC+00:00)

Meteor 1-11 - Visible Passes

Search period start: 28 September 2023 00:00
Search period end: 08 October 2023 00:00
Orbit: 840 x 886 km, 81.2° (Epoch: 28 September)

Date Brightness Start Highest point End Pass type
(mag) Time Alt. Az. Time Alt. Az. Time Alt. Az.
28 Sep 6.6 21:28:27 10° N 21:29:48 18° N 21:29:48 18° N visible
29 Sep 6.5 21:20:11 10° N 21:21:34 18° N 21:21:34 18° N visible
30 Sep 6.5 21:11:54 10° N 21:13:21 18° N 21:13:21 18° N visible
01 Oct 6.4 21:03:38 10° N 21:05:09 18° N 21:05:09 18° N visible
02 Oct 6.4 20:55:22 10° N 20:56:57 19° N 20:56:57 19° N visible
03 Oct 6.3 20:47:06 10° N 20:48:46 20° N 20:48:46 20° N visible
04 Oct 6.2 20:38:50 10° N 20:40:36 20° N 20:40:36 20° N visible
05 Oct 6.2 20:30:34 10° N 20:32:26 21° N 20:32:26 21° N visible
06 Oct 6.1 20:22:18 10° N 20:24:17 22° N 20:24:17 22° N visible
06 Oct 7.2 22:06:30 10° NW 22:06:34 10° NW 22:06:34 10° NW visible
07 Oct 6.0 20:14:01 10° N 20:16:09 23° N 20:16:09 23° N visible
07 Oct 7.1 21:58:13 10° NW 21:58:26 11° NW 21:58:26 11° NW visible
